ONEWEB-0022, 45135

Orbit data source: Space-Track

ONEWEB-0022, 45135 is a payload satellite owned by One Web (UK) in LEO that was launched on Thu, 06 Feb 2020 UTC via a SOYUZ-2-1B launch vehicle from the Tyuratam Missile And Space Complex (TTMTR). Payload-class satellites include a variety of spacecraft equipped with specific instruments for various scientific and technological missions. These include communications satellites like Starlink; space stations such as the ISS; scientific satellites like the Hubble; Earth observation satellites from companies like Planet Labs, Umbra, and HawkEye 360; GPS; miniature CubeSats for education and research; and military/defense satellites.

Loading next visibility...
Identifier
45135, 2020-008E
Orbit
LEO
Last TLE update
18 hours ago
Origin
Manufacturer
One Web
Mission
Non-operational Commercial Communications
Bus & Motor
ARROW, Unknown motor
Mass
148 kg wet, ~140 kg dry
Launch date (UTC)
2020-02-06 (5 years ago)
Launch vehicle
SOYUZ-2-1B
Launch site
Tyuratam Missile And Space Complex (TTMTR)
Object type
Payload
Rocket body
Debris
Shape & HBR
Trap Box + 2 Pan, 5 m
Radar Cross Section
2.957 m², Large (>1 m²)

Expand to show TLE details & history

TLE from 18 hours ago
0 ONEWEB-0022
1 45135U 20008E   25187.31501115  .00000234  00000-0  63352-3 0  9999
2 45135  87.8830 105.2824 0002092  71.9941 288.1415 13.10456770263059
Epoch: 2025-07-06T07:33Z
TLE epoch observation values (Epoch: 2025-07-06T07:33:36.963Z)
Latitude
0.00006°
Longitude
67.33792°
Altitude
1,223.785 km
Speed
7.243 km/s
True Right ascension
07h 01m 07s
True Declination
0° 00' 00"
Sunlit
Object was in daylight at epoch
Visualization orbit readout
Latitude
-71.7379°
Longitude
-106.41011°
Altitude
1,249.637 km
Speed
7.229 km/s
Apparent Right ascension
23h 37m 24s
Apparent Declination
-64° 00' 34"
Sunlit
Object is in full shadow
Visualization observer readout
Local Sidereal Time
13:20:35
Azimuth
156.388° SSE
Elevation
-61.569°
Doppler factor
1
Orbital elements
Apogee altitude
1,220.101 km
Perigee altitude
1,216.923 km
Semi-major axis
7,596.649 km
Eccentricity
0.00021
Inclination
87.883°
RAAN
105.2824°
Arg. of periapsis
71.9941°
True anomaly
Unknown
Mean anomaly
288.1415°
Eccentric anomaly
Unknown
Mean motion
3.27801 °/min
Orbital period
109.82 mins
BSTAR
0.00063352
Loading maneuver chart data...
Loading SW <> Apogee altitude chart data...
Loading historical data...
Loading historical data...
Loading historical data...
Loading historical data...
Loading historical data...
Loading historical data...
Loading historical data...

ONEWEB-0022 Visibility forecast

Observer location: undefined°, undefined°

Span
Click to sort rows by Start time (UTC) header in descending order
Start Az.
Max El. time (UTC)
Max El. Az.
Max El.
End time (UTC)
End Az.
13 mins2025-07-07 06:08:58.990Z10.468° NNE2025-07-07 06:15:58.990Z94.327° ESE38.012°2025-07-07 06:21:58.990Z157.936° S
10 mins2025-07-07 08:00:58.990Z327.21° NNW2025-07-07 08:04:58.990Z285.053° WNW25.271°2025-07-07 08:10:58.990Z228.363° WSW
13 mins2025-07-07 18:28:58.990Z158.652° S2025-07-07 18:34:58.990Z81.002° E40.391°2025-07-07 18:41:58.990Z8.655° NNE
10 mins2025-07-07 20:20:58.990Z239.679° WSW2025-07-07 20:24:58.990Z279.604° WNW22.812°2025-07-07 20:30:58.990Z335.333° NNW
|